NSS 806 (INTELSAT 806)

导读

NSS 806(原称INTELSAT 806)是SES于1998年2月28日发射的商用通信卫星,隶属于国际通信卫星系列。该卫星定位于地球静止轨道,主要提供跨区域通信服务,支持电话、电视传输、数据通信等业务,服务覆盖美洲及大西洋区域,为多国电信运营商提供转发器租赁服务,助力洲际通信互联互通,是国际卫星通信网络中重要的空间基础设施。

基本信息
目录编号:
25239
目录名称:
NSS 806 (INTELSAT 806)
国际标识:
1998-014A
轨道中心:
EARTH
卫星名称:
NSS 806 (INTELSAT 806)
卫星全名:
--
卫星状态:
在轨 (已飞行10335 天)
发射日期:
1998-02-28 UTC
国别 :
(SES)
星等 :
--
轨道信息
数据来源 国际轨道数据 AOE轨道数据
星历时间 2026-06-15T06:59:19+0800
1天前
查看轨道信息
2026-06-16T05:00:00+0800
19小时前
查看轨道信息
半长轴 42503.093km 42503.093km
偏心率 0.0004981 0.0005004
轨道倾角 7.119° 7.121°
近地点辐角 94.674° 94.192°
升交点赤经 69.764° 69.756°
平近点角 192.748° 160.368°
近地点 36103.785km 36103.687km
远地点 36146.127km 36146.225km
周期 1453.418分钟 1453.418分钟
每日圈数 0.990768 0.990768
详细信息
使用方式:
暂无
2D轨道图
3D轨道图
轨道高度分析图
轨道倾角分析图
轨道综合分析图
查看轨道综合分析图